Flag for Moldova Weather past 2 weeks in Cahul, Moldova

Now
43 °F

Overcast.


Feels Like: 40 °F
Forecast: 36 / 50 °F
Wind: 6 mph from Northwest

Location: Galati

Current Time: Mar 3, 2015 at 1:26:49 PM

Latest Report: Mar 3, 2015 at 12:00 PM


Visibility: 6 mi

Pressure: 29.93 "Hg

Humidity: 83%

Dew point: 38 °F

Location of CahulLocation

Historic Weather in Cahul — Graph

°F

Cahul temperature yesterday

Maximum temperature yesterday: 54 °F (at 4:00 PM)
Minimum temperature yesterday: 40 °F (at 7:00 AM)
Average temperature yesterday: 46 °F

Past Weeks' High & Low Weather Summary

 TemperatureHumidityPressure
High56 °F (Feb 27, 3:00 PM)100% (Feb 24, 12:00 AM)30.72 "Hg (Feb 24, 12:00 AM)
Low16 °F (Feb 17, 8:00 AM)33% (Feb 17, 3:00 PM)29.77 "Hg (Mar 3, 5:00 AM)
Average39 °F82%30.13 "Hg
* Reported Feb 16 12:00 Noon — Mar 3 12:00 Noon, Cahul, Weather by CustomWeather, © 2015

Note: Actual official high and low records may vary slightly from our data, if they occured in-between our weather recording intervals... More about our weather records

Advertising

Cahul weather history for previous 24 hours

 ConditionsComfort  
Time TempWeatherWind HumidityBarometerVisibility
12:00 PM
Tue, Mar 3
43 °FOvercast.6 mph83%29.93 "Hg6 mi
11:00 AM43 °FLight rain. Overcast.6 mph92%29.90 "Hg1 mi
10:00 AM45 °FLight rain. Overcast.2 mph100%29.86 "Hg1 mi
9:00 AM44 °FLight rain. Overcast.2 mph100%29.85 "Hg1 mi
8:00 AM44 °FLight rain. Overcast.2 mph96%29.81 "Hg2 mi
7:00 AM44 °FLight rain. Overcast.2 mph93%29.79 "Hg6 mi
6:00 AM45 °FOvercast.3 mph88%29.78 "Hg6 mi
5:00 AM46 °FOvercast.3 mph85%29.77 "Hg6 mi
4:00 AM46 °FOvercast.3 mph86%29.78 "Hg6 mi
3:00 AM47 °FOvercast.3 mph84%29.79 "Hg6 mi
2:00 AM47 °FOvercast.3 mph87%29.80 "Hg6 mi
1:00 AM44 °FOvercast.3 mph94%29.81 "Hg6 mi
12:00 AM46 °FPassing clouds.2 mph92%29.81 "Hg6 mi
11:00 PM
Mon, Mar 2
47 °FPassing clouds.2 mph91%29.83 "Hg6 mi
10:00 PM48 °FPassing clouds.2 mph90%29.84 "Hg6 mi
9:00 PM49 °FPassing clouds.2 mph88%29.84 "Hg6 mi
8:00 PM50 °FOvercast.1 mph85%29.85 "Hg6 mi
7:00 PM50 °FPassing clouds.1 mph83%29.85 "Hg6 mi
6:00 PM53 °FPassing clouds.2 mph77%29.83 "Hg6 mi
5:00 PM54 °FPartly sunny.3 mph73%29.85 "Hg6 mi
4:00 PM54 °FPartly sunny.3 mph76%29.86 "Hg6 mi
3:00 PM53 °FPartly sunny.5 mph76%29.88 "Hg6 mi
2:00 PM50 °FFog.5 mph81%29.90 "Hg2 mi
1:00 PM45 °FFog.5 mph93%29.92 "Hg2 mi
Weather by CustomWeather, © 2015

See weather overviewHow to use our weather pages